Wind_Speed
73 73 74 75 75 75 77 77 78 78 77 77 78 79 80 80 81 82 81 81 81 82 83 84 84 84 85 86 87 87 87 87 87 88 88 89 91 93 93 93 94 96
76 76 76 76 76 77 78 78 78 79 79 79 80 81 80 81 82 83 83 83 84 85 86 87 87 87 87 88 88 88 88 88 88 89 89 90 92 92 93 95 97 100
79 79 78 78 78 78 79 79 79 80 80 81 82 82 82 83 84 85 87 88 89 89 90 91 91 90 90 90 90 89 89 90 90 90 90 91 92 93 96 98 101 103
82 82 81 81 80 80 81 81 82 82 82 83 85 85 85 86 88 89 91 92 93 92 93 93 93 92 91 91 91 90 91 90 90 90 91 93 95 97 100 102 103 105
84 84 84 84 84 83 83 84 84 85 85 86 87 88 88 90 91 92 93 95 95 94 94 94 94 93 93 93 92 91 91 90 91 92 94 96 99 101 103 104 106 108
87 87 87 87 86 86 86 86 87 88 88 89 90 90 91 92 93 94 95 96 96 96 96 96 95 95 95 95 93 92 92 93 94 96 98 100 102 104 106 108 110 111
90 90 89 89 89 89 88 89 90 91 91 92 92 93 93 94 95 96 97 98 98 97 98 98 98 97 97 96 95 95 96 98 99 101 102 103 105 107 109 110 111 112
94 93 92 92 92 91 91 92 93 94 94 94 95 95 96 97 97 98 99 100 100 100 100 101 101 100 99 99 99 100 101 102 102 103 105 106 108 109 111 112 113 113
97 96 96 95 95 94 94 94 95 96 96 96 97 97 98 99 100 101 102 102 103 103 103 103 103 102 102 103 103 103 103 104 104 106 107 108 110 111 112 113 113 113
99 99 99 99 98 98 97 97 97 98 98 98 99 100 101 102 102 103 103 104 105 105 105 105 105 106 105 105 104 104 105 106 107 108 109 110 112 113 113 113 113 112
100 101 102 102 102 101 100 100 101 101 101 101 102 103 103 104 104 105 105 106 107 107 108 107 107 107 107 106 106 107 108 108 109 110 111 112 113 113 113 113 113 113
100 102 103 104 104 104 104 103 104 104 104 105 105 106 107 107 107 107 108 109 109 110 110 109 109 109 109 108 109 110 110 111 111 112 112 113 113 113 113 114 115 116
99 101 103 104 105 106 106 106 106 107 107 107 108 108 109 110 110 110 111 111 112 112 112 112 111 111 111 111 112 112 112 113 113 113 113 113 113 114 115 116 118 119
99 100 102 104 105 107 108 108 109 109 110 110 110 111 111 112 112 112 113 114 114 113 114 114 114 114 114 114 114 114 114 114 114 114 114 114 115 116 118 119 120 120
100 101 101 103 104 106 108 109 111 112 112 113 113 114 114 114 115 115 115 116 116 115 116 116 116 115 115 115 115 115 115 115 115 115 115 116 118 119 120 120 121 121
102 102 103 103 104 105 107 108 110 112 114 115 116 116 117 117 117 117 117 117 117 117 117 117 117 117 117 117 117 116 116 116 116 117 118 119 120 120 121 121 121 122
105 104 104 104 105 105 106 107 108 110 113 115 116 118 119 119 119 120 119 119 119 118 118 118 118 118 118 117 117 116 116 117 118 119 120 120 120 121 121 122 122 122
107 106 106 106 106 106 106 106 107 109 111 113 115 117 119 120 121 122 122 122 121 121 120 120 119 118 117 117 117 118 118 119 120 120 120 120 121 121 122 122 122 122
110 109 108 108 107 107 107 107 107 108 110 111 113 115 117 119 121 122 123 123 123 122 122 121 120 119 119 119 119 120 120 121 121 120 120 120 120 121 122 122 122 122
113 112 111 111 110 110 109 109 109 109 110 111 112 114 115 117 118 120 121 122 122 122 121 120 120 120 120 120 120 120 120 120 120 119 119 120 120 121 121 121 121 121
116 115 114 113 112 112 111 110 110 110 110 111 112 113 114 115 117 118 118 119 119 119 119 119 119 119 119 119 119 119 119 118 119 119 119 120 120 120 120 120 120 121
118 117 116 115 114 113 112 111 111 111 111 111 111 113 114 115 116 117 117 117 117 117 117 117 117 117 117 117 117 117 118 118 119 119 119 119 119 119 119 120 121 122
119 118 118 117 115 114 113 112 111 111 111 111 112 113 114 115 116 117 117 117 117 117 117 117 117 117 116 117 117 117 118 118 118 118 118 118 119 119 120 121 123 124
118 118 117 116 115 114 113 112 111 111 111 111 112 113 114 115 116 117 117 117 117 117 117 117 116 117 117 117 117 117 117 117 118 118 118 118 119 120 121 123 124 125
115 115 115 114 113 112 111 111 110 110 111 111 112 113 114 115 116 117 117 117 117 117 117 117 117 117 117 117 118 118 118 118 118 119 119 119 120 122 123 124 125 126
110 110 110 110 110 109 108 108 109 110 111 112 113 113 114 115 116 117 117 117 118 118 118 118 118 118 119 119 119 119 119 119 119 119 120 120 121 122 123 125 126 127
Wind_Direction
269 270 271 272 273 274 276 277 278 279 280 281 282 282 283 283 284 284 286 287 288 290 291 292 292 293 294 294 295 296 296 297 297 296 296 296 297 297 298 298 299 299
267 268 269 270 272 273 274 276 277 278 279 280 281 281 282 282 283 283 285 286 287 288 289 290 291 292 293 293 294 295 296 296 296 295 295 296 296 297 297 297 297 298
267 268 269 270 271 272 273 274 275 276 277 278 279 279 280 280 281 282 283 284 286 287 288 289 290 291 292 292 293 294 295 295 295 295 294 295 295 295 295 296 296 297
267 268 268 269 270 271 271 272 273 273 274 275 276 277 278 279 280 281 282 283 285 286 287 288 289 290 291 291 292 293 294 294 294 293 293 293 293 294 295 295 296 298
267 268 268 269 270 270 271 271 272 273 273 274 275 276 277 278 279 280 281 282 284 285 286 287 288 289 290 290 291 292 292 292 292 291 292 292 293 294 295 296 297 298
267 268 268 269 269 270 271 272 272 273 273 274 274 275 276 277 278 279 281 282 283 284 285 286 287 288 289 289 290 290 290 290 290 290 291 292 293 294 295 297 298 299
268 269 269 269 270 270 271 272 273 273 273 274 275 276 276 277 278 279 281 282 283 284 285 286 287 288 289 289 289 289 289 289 290 290 291 292 293 294 296 297 298 299
269 269 270 270 270 270 271 271 272 273 274 274 275 276 277 278 279 280 281 282 283 284 285 286 287 288 288 288 288 288 289 289 290 290 291 292 293 295 296 297 298 299
270 270 270 271 271 271 271 271 271 272 273 274 275 276 277 277 278 279 280 281 282 283 284 285 286 287 287 287 288 288 288 289 290 290 291 292 293 294 295 296 297 299
270 271 271 271 271 271 271 271 272 272 273 273 274 275 276 277 278 279 280 281 282 283 284 284 285 286 286 287 287 287 288 288 289 290 291 292 293 294 295 296 298 298
270 270 271 271 272 272 272 272 272 273 273 273 274 275 275 276 277 278 279 280 281 282 283 283 284 285 285 286 286 287 287 288 289 290 291 292 293 294 295 296 297 297
269 270 270 271 272 272 273 273 273 273 273 274 274 274 275 276 276 277 278 279 280 281 282 283 283 284 285 285 286 286 287 288 289 290 291 292 293 294 295 295 296 296
268 269 270 270 271 272 272 273 273 274 274 274 274 275 275 276 276 277 278 278 279 280 281 282 283 283 284 285 285 286 287 288 289 290 291 292 293 293 294 294 295 295
269 269 269 270 270 271 272 273 273 274 274 275 275 275 276 276 276 277 278 278 279 280 281 282 282 283 284 285 285 286 287 288 289 290 291 292 292 292 293 293 294 295
269 270 270 270 270 270 271 272 273 273 274 274 275 275 276 276 277 277 278 278 279 280 280 281 282 283 284 284 285 286 287 288 289 290 290 290 291 292 292 293 294 295
270 270 271 271 271 271 271 271 272 272 273 274 274 275 275 276 276 277 277 278 278 279 280 281 281 282 283 284 285 286 287 287 288 288 289 290 291 292 292 293 294 295
271 271 271 271 271 271 271 271 271 272 272 273 273 274 274 275 275 276 277 277 278 279 279 280 281 282 283 284 284 285 286 286 287 288 289 290 290 291 292 293 294 295
272 272 272 272 272 272 272 272 272 272 272 272 272 273 273 274 275 275 276 277 277 278 279 280 281 281 282 283 283 284 285 285 286 287 288 289 290 291 292 293 294 295
272 272 272 273 273 272 272 272 272 272 272 272 272 272 273 273 274 275 275 276 277 277 278 279 280 280 281 282 282 283 284 285 286 287 288 289 290 291 292 293 294 295
272 272 273 273 273 273 273 273 273 272 272 272 272 272 273 273 273 274 275 275 276 277 277 278 279 280 280 281 282 283 284 285 286 287 288 289 290 291 292 293 294 295
272 273 273 273 273 273 273 273 272 272 272 271 271 271 272 272 273 274 274 275 276 277 277 278 279 279 280 281 282 283 284 285 286 287 288 289 290 291 292 293 293 293
273 273 273 273 273 273 272 272 272 271 271 270 270 270 271 271 272 273 274 275 276 277 277 278 279 280 280 281 282 283 284 285 286 287 288 289 290 291 291 292 292 292
272 272 272 272 272 272 271 271 271 270 270 269 269 269 269 270 271 272 273 274 275 276 277 278 279 279 280 281 282 283 284 285 286 287 288 289 289 290 290 291 292 292
271 271 271 271 271 270 270 270 269 269 269 268 268 268 269 269 270 271 272 273 274 275 276 277 278 279 280 281 282 283 284 285 286 287 288 289 289 290 290 291 292 293
269 269 269 269 269 269 269 269 268 268 268 268 268 268 268 269 270 271 272 273 274 275 276 278 279 280 281 282 283 284 285 286 287 287 288 288 289 290 290 291 292 292
267 267 267 268 268 269 269 269 268 268 268 268 268 268 269 269 270 271 272 274 275 276 277 278 279 280 281 282 283 284 285 286 286 287 287 288 289 289 290 290 291 292
Height
10803 10802 10801 10800 10799 10799 10797 10795 10794 10793 10794 10792 10789 10787 10785 10782 10778 10775 10774 10774 10772 10771 10768 10766 10764 10762 10759 10756 10753 10751 10748 10745 10742 10739 10736 10733 10729 10726 10722 10718 10714 10709
10795 10794 10794 10793 10792 10791 10790 10788 10788 10787 10786 10785 10782 10780 10779 10776 10773 10769 10767 10766 10764 10763 10761 10758 10756 10755 10753 10749 10746 10744 10741 10738 10736 10733 10729 10726 10722 10718 10714 10710 10706 10701
10786 10786 10786 10786 10785 10784 10783 10782 10781 10780 10779 10778 10775 10773 10772 10770 10767 10763 10761 10759 10757 10756 10753 10749 10748 10747 10745 10742 10739 10737 10735 10732 10729 10725 10722 10718 10714 10710 10706 10701 10697 10692
10778 10778 10777 10777 10777 10777 10776 10774 10773 10772 10772 10771 10767 10765 10765 10763 10759 10757 10755 10752 10751 10749 10746 10742 10740 10738 10736 10733 10731 10729 10727 10724 10721 10717 10713 10709 10705 10701 10697 10692 10688 10683
10770 10770 10769 10769 10769 10769 10769 10767 10765 10764 10764 10762 10759 10757 10757 10754 10751 10750 10747 10744 10743 10742 10738 10735 10732 10730 10728 10725 10723 10721 10718 10715 10712 10708 10704 10700 10696 10692 10687 10683 10679 10674
10761 10761 10761 10761 10761 10761 10761 10760 10757 10755 10755 10753 10750 10749 10748 10745 10742 10741 10738 10736 10734 10733 10730 10726 10724 10723 10720 10716 10715 10713 10710 10706 10702 10698 10695 10690 10686 10682 10678 10674 10669 10665
10752 10753 10753 10753 10753 10753 10753 10752 10748 10747 10745 10743 10742 10741 10739 10736 10734 10732 10729 10726 10725 10724 10721 10717 10716 10715 10712 10708 10706 10704 10700 10696 10693 10689 10685 10681 10677 10673 10668 10664 10660 10655
10744 10744 10744 10744 10744 10745 10745 10743 10740 10737 10736 10735 10733 10731 10729 10726 10725 10723 10720 10717 10715 10714 10712 10708 10706 10705 10703 10700 10697 10694 10690 10686 10683 10679 10676 10672 10667 10663 10659 10654 10650 10645
10735 10735 10735 10735 10735 10735 10735 10733 10731 10729 10727 10726 10724 10722 10719 10717 10715 10713 10710 10708 10706 10704 10702 10699 10697 10695 10693 10690 10687 10684 10680 10676 10673 10669 10666 10662 10658 10653 10648 10644 10640 10635
10725 10724 10724 10724 10724 10724 10724 10723 10722 10720 10718 10717 10715 10712 10710 10707 10705 10703 10701 10698 10696 10694 10692 10690 10687 10684 10682 10679 10676 10673 10670 10666 10663 10659 10656 10652 10647 10643 10638 10633 10629 10624
10716 10714 10713 10713 10712 10713 10714 10713 10712 10710 10708 10708 10705 10702 10700 10697 10695 10693 10691 10688 10686 10683 10682 10681 10678 10674 10671 10669 10665 10662 10659 10656 10653 10649 10645 10641 10637 10632 10627 10623 10618 10613
10705 10704 10703 10702 10701 10702 10702 10702 10701 10699 10698 10697 10695 10692 10690 10688 10686 10683 10681 10678 10676 10673 10670 10669 10667 10663 10661 10658 10655 10652 10649 10645 10642 10638 10635 10631 10626 10621 10616 10612 10607 10602
10695 10694 10694 10692 10692 10691 10691 10690 10689 10688 10687 10686 10684 10682 10680 10677 10675 10673 10670 10667 10665 10663 10660 10657 10656 10653 10650 10648 10644 10641 10638 10634 10631 10628 10624 10620 10615 10610 10605 10600 10596 10591
10685 10685 10684 10683 10682 10681 10679 10679 10678 10676 10675 10674 10673 10671 10669 10667 10665 10662 10660 10656 10654 10653 10649 10646 10644 10642 10639 10636 10633 10630 10627 10623 10620 10617 10613 10608 10603 10598 10594 10589 10585 10580
10675 10674 10674 10672 10671 10670 10669 10668 10667 10665 10664 10662 10661 10659 10657 10655 10653 10651 10648 10646 10644 10642 10639 10636 10633 10631 10628 10624 10622 10619 10616 10613 10609 10605 10601 10596 10591 10587 10583 10578 10574 10569
10664 10663 10663 10662 10661 10660 10659 10657 10656 10654 10653 10651 10649 10647 10646 10644 10641 10639 10637 10635 10633 10631 10629 10626 10622 10620 10616 10613 10611 10608 10604 10601 10597 10593 10588 10584 10580 10576 10571 10567 10563 10558
10650 10651 10651 10651 10650 10649 10648 10647 10645 10643 10641 10640 10638 10635 10634 10632 10630 10628 10626 10624 10622 10619 10617 10614 10611 10608 10605 10602 10599 10596 10592 10589 10585 10581 10577 10573 10569 10565 10560 10556 10552 10547
10636 10637 10638 10638 10638 10637 10636 10635 10634 10633 10630 10628 10626 10623 10622 10621 10619 10616 10615 10613 10611 10608 10605 10602 10599 10597 10594 10590 10587 10583 10580 10576 10573 10569 10566 10562 10558 10554 10549 10545 10541 10537
10624 10624 10624 10625 10625 10624 10624 10623 10622 10621 10618 10616 10613 10611 10610 10609 10607 10604 10602 10600 10599 10596 10593 10591 10587 10584 10581 10577 10574 10571 10568 10565 10561 10558 10554 10550 10547 10543 10539 10535 10531 10526
10611 10612 10612 10612 10611 10611 10610 10610 10609 10607 10605 10603 10601 10599 10597 10596 10594 10592 10589 10587 10586 10583 10581 10578 10574 10571 10568 10565 10562 10559 10556 10553 10549 10546 10543 10540 10537 10533 10529 10525 10520 10515
10598 10599 10599 10599 10598 10597 10597 10596 10594 10592 10591 10590 10588 10586 10584 10583 10580 10578 10576 10574 10572 10570 10567 10564 10561 10558 10556 10553 10550 10547 10544 10541 10538 10535 10532 10530 10527 10523 10519 10514 10509 10504
10583 10584 10584 10585 10584 10584 10583 10581 10579 10578 10577 10576 10575 10573 10571 10569 10567 10565 10563 10561 10559 10556 10553 10551 10548 10546 10544 10541 10538 10535 10532 10530 10527 10525 10522 10520 10517 10513 10508 10503 10497 10491
10567 10567 10568 10568 10569 10568 10567 10566 10565 10564 10562 10561 10561 10559 10557 10555 10553 10551 10550 10548 10545 10543 10540 10538 10536 10534 10532 10529 10526 10524 10522 10519 10517 10515 10512 10509 10506 10501 10496 10490 10484 10479
10551 10551 10551 10551 10551 10551 10551 10551 10550 10550 10548 10547 10546 10545 10543 10541 10539 10538 10536 10534 10532 10530 10528 10527 10525 10522 10520 10518 10515 10513 10511 10509 10506 10503 10501 10497 10493 10488 10482 10477 10472 10467
10536 10535 10534 10534 10534 10535 10535 10536 10536 10535 10534 10533 10532 10530 10528 10527 10525 10524 10522 10521 10520 10519 10517 10515 10513 10511 10508 10506 10503 10501 10499 10497 10494 10491 10488 10484 10479 10475 10470 10465 10460 10455
10521 10520 10519 10519 10519 10519 10520 10520 10520 10519 10519 10519 10518 10517 10515 10514 10513 10512 10511 10510 10508 10507 10505 10503 10500 10498 10496 10493 10491 10489 10487 10484 10481 10478 10475 10471 10467 10462 10457 10453 10448 10444